Find Arabsat 6A

NORAD ID: 44186 Int'l Des: 2019-021 Owner: ARAB Country: I-ARAB operational
HEOCIRCULARGSOGEO

Live Position

Loading 3D Globe...

About Arabsat 6A

Description loading...

Upcoming Passes

Passes for default location (London). Set your location on the main map for personalized predictions.

Altitude History

Loading altitude history...

Two-Line Element Set

1 44186U 19021A 26109.86900184 .00000155 00000-0 00000-0 0 9991
2 44186 0.0590 11.9676 0002021 25.5439 153.7655 1.00272689 25578
Epoch: Apr 19, 2026 • Age: 6 hours

Current Status

Altitude 35789.6 km
Velocity 3.07 km/s
Sub-Earth Point -0.04°S, 30.44°E
Launch Date Apr 11, 2019
Age 7 years
Type other

Technical Details

Classification Payload
Mass 6465.00 kg
Dry Mass 3520.00 kg
Total Mass 6465.00 kg
Length 3.90 m
Diameter 2.40 m
Span 30.80 m
Shape Box + 2 panels
Manufacturer LMCSS
Bus Type A2100
Phase Status In Orbit
Owner/State ARAB/I-ARAB

Most Searched